Location: Geyikbay?r?
(36.8756°N, 30.4583°E)
Time: 21:24:40
(UTC+00:00)

Daily predictions for brighter satellites

Satellite Brightness Start Highest point End
(mag) Time Altitude Azimuth Time Altitude Azimuth Time Altitude Azimuth
Cosmos 923 Rocket 4.1 15:02:48 10° S 15:07:56 63° ESE 15:13:05 10° NNE
Cosmos 1356 Rocket 3.4 15:04:46 10° S 15:08:54 80° E 15:13:08 10° N
NOSS 2-3 (E) 3.6 15:05:20 10° SSW 15:09:34 79° ESE 15:14:20 10° NE
IRS-1C Rocket 4.1 15:04:25 10° SSE 15:09:36 62° ENE 15:14:50 10° N
YAOGAN 6 4.5 15:11:02 10° E 15:11:52 11° ENE 15:12:43 10° NE
CZ-3 Stage 3 3.6 15:10:04 10° WSW 15:12:41 20° S 15:14:18 10° SE
NOSS 3-1 (C) 4.4 15:10:53 10° WSW 15:16:02 41° NW 15:21:51 10° NNE
NOSS 3-1 (A) 3.7 15:12:24 10° SW 15:17:45 63° NW 15:23:52 10° NNE
Meteor 2-20 Rocket 4.4 15:12:55 10° S 15:19:00 76° E 15:25:09 10° N
NOSS 2-3 (D) 3.6 15:15:00 10° SSW 15:19:14 89° WNW 15:24:02 10° NNE
Cosmos 1805 Rocket 3.5 15:15:09 10° N 15:19:32 81° E 15:23:55 10° S
BREEZE-M DEB (TANK) 3.1 15:14:51 10° WSW 15:23:40 80° NNW 15:27:00 10° ENE
CZ-4 R/B 2.9 15:21:23 10° ESE 15:24:00 17° ENE 15:26:36 10° NNE
PSLV R/B 2.5 15:22:11 10° WNW 15:24:42 66° NNE 15:27:12 10° ESE
SeaSat 1 3.5 15:22:35 10° ESE 15:26:27 24° NE 15:30:20 10° N
Okean-O 3.0 15:23:10 10° SE 15:27:20 42° ENE 15:31:32 10° N
Lacrosse 4 Rocket 2.6 15:23:47 10° SW 15:27:39 41° WNW 15:31:30 10° N
Envisat 3.2 15:35:27 10° SE 15:40:18 49° ENE 15:45:12 10° N
Cosmos 1933 4.3 15:37:51 10° SE 15:41:13 26° E 15:44:36 10° NNE
Tsikada Rocket 4.4 15:35:39 10° SSE 15:41:34 43° E 15:47:34 10° NNE
CORIOLIS 4.2 15:37:53 10° SSE 15:43:17 90° E 15:48:45 10° NNW
Cosmos 1633 Rocket 3.0 15:41:38 10° N 15:46:02 65° E 15:50:24 10° SSE
Cosmos 1151 Rocket 3.1 15:41:47 10° S 15:46:03 59° E 15:50:21 10° NNE
Cosmos 1606 3.8 15:44:53 10° SE 15:47:55 23° E 15:49:10 19° ENE
Cosmos 1862 3.2 15:44:41 10° N 15:48:41 77° E 15:52:40 10° S
Cosmos 2228 Rocket 4.1 15:45:04 10° SE 15:48:43 25° E 15:51:33 14° NE
SMAP 3.7 15:44:52 10° S 15:49:26 60° W 15:54:03 10° NNW
SL-8 R/B 3.7 15:46:32 10° SW 15:51:20 76° SE 15:54:41 20° ENE
Sich 1 3.7 15:47:37 10° NNW 15:51:56 60° W 15:56:15 10° S
SL-16 R/B 3.3 15:50:04 10° SSE 15:54:26 23° E 15:56:11 20° ENE
Cosmos 1980 Rocket 2.2 15:49:34 10° SSW 15:55:13 88° ESE 16:00:57 10° NNE
Cosmos 1328 Rocket 3.5 15:51:07 10° S 15:55:32 85° E 15:59:56 10° N
Cosmos 1515 Rocket 3.6 15:55:34 10° S 15:59:51 55° E 16:04:08 10° NNE
Cosmos 158 Rocket 3.9 15:55:45 10° SSW 16:01:03 80° ESE 16:06:17 10° NNE
Cosmos 1666 Rocket 3.9 15:56:48 10° NNW 16:01:08 66° W 16:05:23 10° S
Cosmos 2322 Rocket 3.2 15:57:29 10° SSE 16:01:44 23° E 16:02:27 22° E
Cosmos 1933 Rocket 4.0 15:58:09 10° NNE 16:02:10 35° ENE 16:06:11 10° SE
COSMO-SKYMED 1 2.5 15:59:22 10° NNE 16:03:44 81° E 16:08:04 10° S
NOAA 12 4.2 15:58:46 10° S 16:04:06 79° WSW 16:09:27 10° NNW
Cosmos 1464 Rocket 4.2 15:58:49 10° N 16:04:56 73° W 16:11:01 10° S
Cosmos 2297 Rocket 3.9 16:00:56 10° NW 16:06:01 35° WSW 16:11:04 10° SSW
Cosmos 2227 Rocket 3.8 16:01:29 10° NW 16:06:40 38° WSW 16:11:48 10° S
Cosmos 1371 Rocket 3.9 16:03:27 10° N 16:08:34 58° ENE 16:13:39 10° SSE
Cosmos 1633 4.4 16:09:19 10° NNW 16:12:38 34° W 16:15:55 10° SSW
Cosmos 397 4.4 16:10:21 10° NNW 16:14:25 87° ENE 16:19:02 10° SSE
USA 116 4.3 16:12:56 10° NNE 16:17:52 74° ESE 16:23:08 10° S
Cosmos 1932 4.5 16:12:56 10° NNW 16:19:30 72° ENE 16:26:00 10° SE
Cosmos 2263 Rocket 2.9 16:18:01 10° N 16:22:22 30° NE 16:22:22 30° NE
YAOGAN 1 2.5 16:19:10 10° SSE 16:23:25 62° ENE 16:27:42 10° N
Cosmos 1400 Rocket 3.6 16:20:02 10° SSE 16:22:58 35° SE 16:22:58 35° SE
COSMOS 2455 3.6 16:21:34 10° SSE 16:26:39 31° ESE 16:26:39 31° ESE
DELTA 2 R/B (1) 3.6 16:21:20 10° WSW 16:26:54 68° SSE 16:28:49 41° E
Cosmos 1470 Rocket 3.8 16:28:00 10° NNW 16:32:29 69° W 16:36:54 10° S
GPS 2-04 Rocket1 2.4 16:29:05 10° W 16:32:18 67° SSW 16:32:18 67° SSW
Hubble Space Telescope 2.7 16:30:12 10° SSW 16:33:04 18° SSE 16:33:21 18° SSE
ISS -1.9 16:40:39 10° SSW 16:42:12 24° SSW 16:42:12 24° SSW
YAOGAN 6 4.0 16:41:45 10° SSW 16:44:59 36° W 16:48:15 10° NNW
H-2A R/B 4.5 15:18:27 10° W 16:55:41 72° SSW 17:02:17 33° ESE
CZ-4 R/B 3.0 16:54:56 10° SSW 16:58:44 35° W 17:02:29 10° NNW
Cosmos 2056 Rocket 4.1 16:55:01 10° NNW 17:00:01 53° WSW 17:05:04 10° S
SeaSat 1 3.6 16:59:03 10° S 17:03:42 42° WSW 17:08:23 10° NW
BREEZE-M R/B 3.8 17:00:09 10° WSW 17:04:12 45° W 17:04:12 45° W
Cosmos 2227 4.2 17:03:44 10° NNW 17:09:30 77° WSW 17:10:36 58° S
NOAA 11 4.3 17:04:09 10° S 17:09:32 71° WSW 17:14:58 10° NNW
Cosmos 1634 Rocket 4.4 17:15:50 10° NNW 17:21:53 58° W 17:27:52 10° S
Cosmos 2360 Rocket 4.3 17:27:46 10° SSW 17:28:51 16° S 17:28:51 16° S
SL-16 R/B 3.2 17:32:49 10° SW 17:38:07 43° WNW 17:38:07 43° WNW
Cosmos 2322 Rocket 3.4 17:40:07 10° SW 17:44:20 39° W 17:44:20 39° W
ATLAS 2AS CENTAUR R/B 3.9 17:42:35 10° SSW 17:46:50 36° S 17:46:50 36° S
ATLAS 5 CENTAUR R/B 4.4 17:46:24 10° SW 17:52:49 31° SSE 17:53:15 30° SSE
Cosmos 2263 Rocket 4.2 18:01:51 10° NW 18:04:09 22° WNW 18:04:09 22° WNW
